Powrót do katalogu

COSMOS 970 DEB

AktywnyLEO
NORAD 10577·DEBRIS·🇷🇺 Russia

Wystrzelony Dec 21, 1977 z Baikonur Cosmodrome

Loading…

Następne Przeloty (najbliższe 24 godziny)

TLE

ŚwieżeSource: Space-Track

Epoka: Sep 14, 2026, 03:58 UTC

1 10577U 77121U   26257.16574257  .00000058  00000-0  14760-3 0  9991
2 10577  65.7943 134.6627 0143124 269.0684 172.2574 13.69211931429992

Śledź COSMOS 970 DEB w czasie rzeczywistym z AllMySat

Download on the App Store